Weather History for Mtwara, Tanzania

Change the Weather History Date:

Wednesday, July 17, 2013

  Actual Average Record
Temperature  
Mean Temperature 76 °F -  
Max Temperature 87 °F - - ()
Min Temperature 64 °F - - ()
Cooling Degree Days 10    
Growing Degree Days 26 (Base 50)    
Moisture  
Dew Point 72 °F    
Average Humidity 82    
Maximum Humidity 94    
Minimum Humidity 56    
Precipitation  
Precipitation 0.00 in 0.01 in - ()
Sea Level Pressure  
Sea Level Pressure 30.04 in    
Wind  
Wind Speed 16 mph ()    
Max Wind Speed 34 mph    
Max Gust Speed -    
Visibility 10.3 miles    
Events      
T = Trace of Precipitation, MM = Missing Value Source: Averaged Metar Reports

Daily Weather History Graph

Daily Weather History Graph

Search for Another Location

Airport:

Trip Planner

Search our weather history database for the weather conditions in past years. The results will help you decide how hot, cold, wet, or windy it might be!

Date:

Astronomy

Jul. 17, 2013 Rise Set
Actual Time 6:37 AM EAT 6:13 PM EAT
Civil Twilight 6:15 AM EAT 6:35 PM EAT
Nautical Twilight 5:49 AM EAT 7:01 PM EAT
Astronomical Twilight 5:23 AM EAT 7:27 PM EAT
Moon 1:02 PM EAT (7/17) 12:56 AM EAT (7/17)
Length of Visible Light 12h 20m
Length of Day
11h 35m
Waxing Gibbous, 64% of the Moon is Illuminated
Jul 17
Waxing Gibbous
Jul 22
Full
Jul 29
Last Quarter
Aug 7
New
Aug 14
First Quarter

Hourly Weather History & Observations

Time (EAT) Temp. Heat Index Dew Point Humidity Pressure Visibility Wind Dir Wind Speed Gust Speed Precip Events Conditions
12:00 AM 69 °F - 67 °F 92% 30.06 in 19 mi SSE 24.6 mph - -   Scattered Clouds
12:00 AM 69.8 °F - 68.0 °F 94% 30.06 in 6.2 mi SSE 12.7 mph - N/A   Partly Cloudy
6:00 AM 67 °F - 65 °F 93% 30.05 in 19 mi South 13.8 mph - -   Scattered Clouds
7:00 AM 68.0 °F - 66.2 °F 94% 30.06 in 6.2 mi South 13.8 mph - N/A   Scattered Clouds
8:00 AM 69.8 °F - 68.0 °F 94% 30.06 in 6.2 mi South 15.0 mph - N/A   Scattered Clouds
9:00 AM 72 °F - 68 °F 83% 30.09 in 19 mi South 33.6 mph - -   Scattered Clouds
9:00 AM - - - N/A% - 6.2 mi South 17.3 mph - N/A   Scattered Clouds
10:00 AM 77.0 °F - 66.2 °F 69% 30.06 in 6.2 mi South 18.4 mph - N/A   Mostly Cloudy
11:00 AM 80.6 °F 86.2 °F 75.2 °F 84% 30.06 in 6.2 mi South 20.7 mph - N/A   Scattered Clouds
12:00 PM 82 °F - 69 °F 56% 30.07 in 19 mi South 16.1 mph - -   Partly Cloudy
12:00 PM 82.4 °F 86.3 °F 69.8 °F 66% 30.06 in 6.2 mi South 16.1 mph - N/A   Scattered Clouds
1:00 PM 86.0 °F 96.9 °F 77.0 °F 74% 30.04 in 6.2 mi ESE 17.3 mph - N/A   Scattered Clouds
2:00 PM 86.0 °F 96.9 °F 77.0 °F 74% 30.01 in 6.2 mi SE 15.0 mph - N/A   Scattered Clouds
3:00 PM 87 °F - 79 °F 72% 29.99 in 19 mi ESE 15.0 mph - -   Scattered Clouds
3:00 PM 87.8 °F 102.5 °F 78.8 °F 75% 29.98 in 6.2 mi ESE 15.0 mph - N/A   Partly Cloudy
4:00 PM 84.2 °F 96.1 °F 78.8 °F 84% 29.98 in 6.2 mi SE 16.1 mph - N/A   Partly Cloudy
5:00 PM 82.4 °F 90.9 °F 77.0 °F 84% 29.98 in 6.2 mi SSE 16.1 mph - N/A   Partly Cloudy
6:00 PM 77 °F - 73 °F 85% 30.01 in 19 mi ESE 20.7 mph - -   Scattered Clouds
6:00 PM 77.0 °F - 73.4 °F 89% 30.01 in 6.2 mi ESE 20.7 mph - N/A   Partly Cloudy
7:00 PM 73.4 °F - 69.8 °F 88% 30.04 in 6.2 mi ESE 11.5 mph - N/A   Partly Cloudy
9:00 PM 72 °F - 69 °F 87% 30.06 in 19 mi ESE 11.5 mph - -   Scattered Clouds
9:00 PM 71.6 °F - 69.8 °F 94% 30.04 in 6.2 mi ESE 11.5 mph - N/A   Partly Cloudy